owner,sensor,date,latitude,longitude,vertical_datum,direction_of_sea_water_velocity,sea_water_speed,upward_sea_water_velocity,qcFlag 
TABS,ioos:station:TABS:M:1,1999-05-01T00:00:00Z,28.1921,-94.1914,2.0,297.4165634,8.730572719,-99999.0,'11133222,11111222,99999999' 
TABS,ioos:station:TABS:M:1,1999-05-01T00:30:00Z,28.1921,-94.1914,2.0,284.5254179,13.07799679,-99999.0,'11111222,11111222,99999999' 
TABS,ioos:station:TABS:M:1,1999-05-01T01:00:00Z,28.1921,-94.1914,2.0,279.0211741,12.3730352,-99999.0,'11111222,11111222,99999999' 
TABS,ioos:station:TABS:M:1,1999-05-01T01:30:00Z,28.1921,-94.1914,2.0,286.3423972,14.28721456,-99999.0,'11111222,11111222,99999999' 
TABS,ioos:station:TABS:M:1,1999-05-01T02:00:00Z,28.1921,-94.1914,2.0,270.0004209,10.88,-99999.0,'11111222,11111222,99999999' 
TABS,ioos:station:TABS:M:1,1999-05-01T02:30:00Z,28.1921,-94.1914,2.0,272.6620419,9.690454066,-99999.0,'11133222,11111222,99999999' 
TABS,ioos:station:TABS:M:1,1999-05-01T03:00:00Z,28.1921,-94.1914,2.0,280.23685,14.23660774,-99999.0,'11111222,11111222,99999999' 
TABS,ioos:station:TABS:M:1,1999-05-01T03:30:00Z,28.1921,-94.1914,2.0,277.4631121,12.62695529,-99999.0,'11111222,11111222,99999999' 
TABS,ioos:station:TABS:M:1,1999-05-01T04:00:00Z,28.1921,-94.1914,2.0,260.3460345,13.29830816,-99999.0,'11111222,11111222,99999999' 
TABS,ioos:station:TABS:M:1,1999-05-01T04:30:00Z,28.1921,-94.1914,2.0,263.7289751,13.64161647,-99999.0,'11111222,11111222,99999999' 
TABS,ioos:station:TABS:M:1,1999-05-01T05:00:00Z,28.1921,-94.1914,2.0,268.7180111,13.41335528,-99999.0,'11111222,11111222,99999999' 
TABS,ioos:station:TABS:M:1,1999-05-01T05:30:00Z,28.1921,-94.1914,2.0,261.9609573,15.94669245,-99999.0,'11111222,11111222,99999999' 
TABS,ioos:station:TABS:M:1,1999-05-01T06:00:00Z,28.1921,-94.1914,2.0,257.8505159,17.67588187,-99999.0,'11111222,11111222,99999999' 
TABS,ioos:station:TABS:M:1,1999-05-01T06:30:00Z,28.1921,-94.1914,2.0,255.9633684,23.95524368,-99999.0,'11111222,11111222,99999999' 
TABS,ioos:station:TABS:M:1,1999-05-01T07:00:00Z,28.1921,-94.1914,2.0,258.0655438,26.64591901,-99999.0,'11111222,11111222,99999999' 
TABS,ioos:station:TABS:M:1,1999-05-01T07:30:00Z,28.1921,-94.1914,2.0,256.8003976,29.38632675,-99999.0,'11111222,11111222,99999999' 
TABS,ioos:station:TABS:M:1,1999-05-01T08:00:00Z,28.1921,-94.1914,2.0,256.9278215,32.27636287,-99999.0,'11111222,11111222,99999999' 
TABS,ioos:station:TABS:M:1,1999-05-01T08:30:00Z,28.1921,-94.1914,2.0,259.6264645,32.26737826,-99999.0,'11111222,11111222,99999999' 
TABS,ioos:station:TABS:M:1,1999-05-01T09:00:00Z,28.1921,-94.1914,2.0,260.5399435,35.35071428,-99999.0,'11111222,11111222,99999999' 
TABS,ioos:station:TABS:M:1,1999-05-01T09:30:00Z,28.1921,-94.1914,2.0,262.0615179,36.71177604,-99999.0,'11111222,11111222,99999999' 
TABS,ioos:station:TABS:M:1,1999-05-01T10:00:00Z,28.1921,-94.1914,2.0,270.3655114,47.08095581,-99999.0,'11111222,11111222,99999999' 
TABS,ioos:station:TABS:M:1,1999-05-01T10:30:00Z,28.1921,-94.1914,2.0,272.4607802,45.19165963,-99999.0,'11111222,11111222,99999999' 
TABS,ioos:station:TABS:M:1,1999-05-01T11:00:00Z,28.1921,-94.1914,2.0,277.9862253,48.29837471,-99999.0,'11111222,11111222,99999999' 
TABS,ioos:station:TABS:M:1,1999-05-01T11:30:00Z,28.1921,-94.1914,2.0,277.6713649,44.64956999,-99999.0,'11111222,11111222,99999999' 
TABS,ioos:station:TABS:M:1,1999-05-01T12:00:00Z,28.1921,-94.1914,2.0,282.3593326,43.17043549,-99999.0,'11111222,11111222,99999999' 
TABS,ioos:station:TABS:M:1,1999-05-01T12:30:00Z,28.1921,-94.1914,2.0,283.3505811,45.17064755,-99999.0,'11111222,11111222,99999999' 
TABS,ioos:station:TABS:M:1,1999-05-01T13:00:00Z,28.1921,-94.1914,2.0,286.4689032,42.57668141,-99999.0,'11111222,11111222,99999999' 
TABS,ioos:station:TABS:M:1,1999-05-01T13:30:00Z,28.1921,-94.1914,2.0,288.940651,37.64837978,-99999.0,'11111222,11111222,99999999' 
TABS,ioos:station:TABS:M:1,1999-05-01T14:00:00Z,28.1921,-94.1914,2.0,290.0209788,33.94107394,-99999.0,'11111222,11111222,99999999' 
TABS,ioos:station:TABS:M:1,1999-05-01T14:30:00Z,28.1921,-94.1914,2.0,295.7046053,26.79111793,-99999.0,'11111222,11111222,99999999' 
TABS,ioos:station:TABS:M:1,1999-05-01T15:00:00Z,28.1921,-94.1914,2.0,311.6352586,34.0918304,-99999.0,'11111222,11111222,99999999' 
TABS,ioos:station:TABS:M:1,1999-05-01T15:30:00Z,28.1921,-94.1914,2.0,316.2738816,33.40490533,-99999.0,'11111222,11111222,99999999' 
TABS,ioos:station:TABS:M:1,1999-05-01T16:00:00Z,28.1921,-94.1914,2.0,315.3654062,33.29126312,-99999.0,'11111222,11111222,99999999' 
TABS,ioos:station:TABS:M:1,1999-05-01T16:30:00Z,28.1921,-94.1914,2.0,315.3821932,30.76689942,-99999.0,'11111222,11111222,99999999' 
TABS,ioos:station:TABS:M:1,1999-05-01T17:00:00Z,28.1921,-94.1914,2.0,311.4013663,26.80979299,-99999.0,'11111222,11111222,99999999' 
TABS,ioos:station:TABS:M:1,1999-05-01T17:30:00Z,28.1921,-94.1914,2.0,324.7586724,36.67080719,-99999.0,'11111222,11111222,99999999' 
TABS,ioos:station:TABS:M:1,1999-05-01T18:00:00Z,28.1921,-94.1914,2.0,320.0560023,32.25642572,-99999.0,'11111222,11111222,99999999' 
TABS,ioos:station:TABS:M:1,1999-05-01T18:30:00Z,28.1921,-94.1914,2.0,347.983762,7.15682192,-99999.0,'11133222,11111222,99999999' 
TABS,ioos:station:TABS:M:1,1999-05-01T19:00:00Z,28.1921,-94.1914,2.0,318.9884598,27.24716499,-99999.0,'11111222,11111222,99999999' 
TABS,ioos:station:TABS:M:1,1999-05-01T19:30:00Z,28.1921,-94.1914,2.0,319.1814304,25.99171022,-99999.0,'11111222,11111222,99999999' 
TABS,ioos:station:TABS:M:1,1999-05-01T20:00:00Z,28.1921,-94.1914,2.0,294.9511088,14.12861281,-99999.0,'11111222,11111222,99999999' 
TABS,ioos:station:TABS:M:1,1999-05-01T20:30:00Z,28.1921,-94.1914,2.0,333.4017739,7.660770196,-99999.0,'11133222,11111222,99999999' 
TABS,ioos:station:TABS:M:1,1999-05-01T21:00:00Z,28.1921,-94.1914,2.0,329.9077616,3.270856157,-99999.0,'11133222,11111222,99999999' 
TABS,ioos:station:TABS:M:1,1999-05-01T21:30:00Z,28.1921,-94.1914,2.0,23.94502346,13.20660819,-99999.0,'11111222,11111222,99999999' 
TABS,ioos:station:TABS:M:1,1999-05-01T22:00:00Z,28.1921,-94.1914,2.0,94.2504311,18.07972621,-99999.0,'11111222,11111222,99999999' 
TABS,ioos:station:TABS:M:1,1999-05-01T22:30:00Z,28.1921,-94.1914,2.0,89.56964521,19.97056334,-99999.0,'11111222,11111222,99999999' 
TABS,ioos:station:TABS:M:1,1999-05-01T23:00:00Z,28.1921,-94.1914,2.0,52.11853281,15.29238373,-99999.0,'11111222,11111222,99999999' 
TABS,ioos:station:TABS:M:1,1999-05-01T23:30:00Z,28.1921,-94.1914,2.0,93.02653985,19.69747446,-99999.0,'11111222,11111222,99999999' 
TABS,ioos:station:TABS:M:1,1999-05-02T00:00:00Z,28.1921,-94.1914,2.0,116.9070838,21.72155151,-99999.0,'11111222,11111222,99999999' 
TABS,ioos:station:TABS:M:1,1999-05-02T00:30:00Z,28.1921,-94.1914,2.0,125.1763093,16.03900558,-99999.0,'11111222,11111222,99999999' 
TABS,ioos:station:TABS:M:1,1999-05-02T01:00:00Z,28.1921,-94.1914,2.0,140.1142773,16.49884844,-99999.0,'11111222,11111222,99999999' 
TABS,ioos:station:TABS:M:1,1999-05-02T01:30:00Z,28.1921,-94.1914,2.0,153.1923662,15.85386388,-99999.0,'11111222,11111222,99999999' 
TABS,ioos:station:TABS:M:1,1999-05-02T02:00:00Z,28.1921,-94.1914,2.0,168.2283281,14.6072037,-99999.0,'11111222,11111222,99999999' 
TABS,ioos:station:TABS:M:1,1999-05-02T02:30:00Z,28.1921,-94.1914,2.0,182.9013325,14.6187414,-99999.0,'11111222,11111222,99999999' 
TABS,ioos:station:TABS:M:1,1999-05-02T03:00:00Z,28.1921,-94.1914,2.0,194.8700646,14.49546481,-99999.0,'11111222,11111222,99999999' 
TABS,ioos:station:TABS:M:1,1999-05-02T03:30:00Z,28.1921,-94.1914,2.0,206.8406508,14.86108004,-99999.0,'11111222,11111222,99999999' 
TABS,ioos:station:TABS:M:1,1999-05-02T04:00:00Z,28.1921,-94.1914,2.0,227.8230007,17.08322276,-99999.0,'11111222,11111222,99999999' 
TABS,ioos:station:TABS:M:1,1999-05-02T04:30:00Z,28.1921,-94.1914,2.0,253.82517,19.24162155,-99999.0,'11111222,11111222,99999999' 
TABS,ioos:station:TABS:M:1,1999-05-02T05:00:00Z,28.1921,-94.1914,2.0,265.071609,22.58348069,-99999.0,'11111222,11111222,99999999' 
TABS,ioos:station:TABS:M:1,1999-05-02T05:30:00Z,28.1921,-94.1914,2.0,271.3902569,24.73727754,-99999.0,'11111222,11111222,99999999' 
TABS,ioos:station:TABS:M:1,1999-05-02T06:00:00Z,28.1921,-94.1914,2.0,274.9442548,25.87626905,-99999.0,'11111222,11111222,99999999' 
TABS,ioos:station:TABS:M:1,1999-05-02T06:30:00Z,28.1921,-94.1914,2.0,282.8494246,29.49866438,-99999.0,'11111222,11111222,99999999' 
TABS,ioos:station:TABS:M:1,1999-05-02T07:00:00Z,28.1921,-94.1914,2.0,293.0361304,34.65322063,-99999.0,'11111222,11111222,99999999' 
TABS,ioos:station:TABS:M:1,1999-05-02T07:30:00Z,28.1921,-94.1914,2.0,302.6131331,32.89676276,-99999.0,'11111222,11111222,99999999' 
TABS,ioos:station:TABS:M:1,1999-05-02T08:00:00Z,28.1921,-94.1914,2.0,303.2518193,32.60900642,-99999.0,'11111222,11111222,99999999' 
TABS,ioos:station:TABS:M:1,1999-05-02T08:30:00Z,28.1921,-94.1914,2.0,306.8666554,32.03600006,-99999.0,'11111222,11111222,99999999' 
TABS,ioos:station:TABS:M:1,1999-05-02T09:00:00Z,28.1921,-94.1914,2.0,311.2147029,30.3090894,-99999.0,'11111222,11111222,99999999' 
TABS,ioos:station:TABS:M:1,1999-05-02T09:30:00Z,28.1921,-94.1914,2.0,312.4385198,30.69082273,-99999.0,'11111222,11111222,99999999' 
TABS,ioos:station:TABS:M:1,1999-05-02T10:00:00Z,28.1921,-94.1914,2.0,315.6296055,28.97191226,-99999.0,'11111222,11111222,99999999' 
TABS,ioos:station:TABS:M:1,1999-05-02T10:30:00Z,28.1921,-94.1914,2.0,328.1759661,26.83398032,-99999.0,'11111222,11111222,99999999' 
TABS,ioos:station:TABS:M:1,1999-05-02T11:00:00Z,28.1921,-94.1914,2.0,334.7672303,28.66519318,-99999.0,'11111222,11111222,99999999' 
TABS,ioos:station:TABS:M:1,1999-05-02T11:30:00Z,28.1921,-94.1914,2.0,330.1736872,26.96145768,-99999.0,'11111222,11111222,99999999' 
TABS,ioos:station:TABS:M:1,1999-05-02T12:00:00Z,28.1921,-94.1914,2.0,335.4587804,30.14310535,-99999.0,'11111222,11111222,99999999' 
TABS,ioos:station:TABS:M:1,1999-05-02T12:30:00Z,28.1921,-94.1914,2.0,339.3067161,31.21379343,-99999.0,'11111222,11111222,99999999' 
TABS,ioos:station:TABS:M:1,1999-05-02T13:00:00Z,28.1921,-94.1914,2.0,350.0914111,25.10448765,-99999.0,'11111222,11111222,99999999' 
TABS,ioos:station:TABS:M:1,1999-05-02T13:30:00Z,28.1921,-94.1914,2.0,2.154699124,19.68391475,-99999.0,'11111222,11111222,99999999' 
TABS,ioos:station:TABS:M:1,1999-05-02T14:00:00Z,28.1921,-94.1914,2.0,349.7189079,39.2197412,-99999.0,'11111222,11111222,99999999' 
TABS,ioos:station:TABS:M:1,1999-05-02T14:30:00Z,28.1921,-94.1914,2.0,353.1404665,36.16891621,-99999.0,'11111222,11111222,99999999' 
TABS,ioos:station:TABS:M:1,1999-05-02T15:00:00Z,28.1921,-94.1914,2.0,0.274875879,31.29035954,-99999.0,'11111222,11111222,99999999' 
TABS,ioos:station:TABS:M:1,1999-05-02T15:30:00Z,28.1921,-94.1914,2.0,357.6209369,25.05159676,-99999.0,'11111222,11111222,99999999' 
TABS,ioos:station:TABS:M:1,1999-05-02T16:00:00Z,28.1921,-94.1914,2.0,1.183429055,29.05619555,-99999.0,'11111222,11111222,99999999' 
TABS,ioos:station:TABS:M:1,1999-05-02T16:30:00Z,28.1921,-94.1914,2.0,1.415212431,24.29740933,-99999.0,'11111222,11111222,99999999' 
TABS,ioos:station:TABS:M:1,1999-05-02T17:00:00Z,28.1921,-94.1914,2.0,93.97434134,12.84088003,-99999.0,'11111222,11111222,99999999' 
TABS,ioos:station:TABS:M:1,1999-05-02T17:30:00Z,28.1921,-94.1914,2.0,30.28315492,6.206971887,-99999.0,'11133222,11111222,99999999' 
TABS,ioos:station:TABS:M:1,1999-05-02T18:00:00Z,28.1921,-94.1914,2.0,16.70149082,26.44558375,-99999.0,'11111222,11111222,99999999' 
TABS,ioos:station:TABS:M:1,1999-05-02T18:30:00Z,28.1921,-94.1914,2.0,25.45638998,13.86621794,-99999.0,'11111222,11111222,99999999' 
TABS,ioos:station:TABS:M:1,1999-05-02T19:00:00Z,28.1921,-94.1914,2.0,26.36762911,19.45390706,-99999.0,'11111222,11111222,99999999' 
TABS,ioos:station:TABS:M:1,1999-05-02T19:30:00Z,28.1921,-94.1914,2.0,77.40628511,14.35538227,-99999.0,'11111222,11111222,99999999' 
TABS,ioos:station:TABS:M:1,1999-05-02T20:00:00Z,28.1921,-94.1914,2.0,90.0,21.75,-99999.0,'11111222,11111222,99999999' 
TABS,ioos:station:TABS:M:1,1999-05-02T20:30:00Z,28.1921,-94.1914,2.0,87.54786529,17.29583765,-99999.0,'11111222,11111222,99999999' 
TABS,ioos:station:TABS:M:1,1999-05-02T21:00:00Z,28.1921,-94.1914,2.0,104.4104336,21.5376229,-99999.0,'11111222,11111222,99999999' 
TABS,ioos:station:TABS:M:1,1999-05-02T21:30:00Z,28.1921,-94.1914,2.0,119.2209139,24.41725824,-99999.0,'11111222,11111222,99999999' 
TABS,ioos:station:TABS:M:1,1999-05-02T22:00:00Z,28.1921,-94.1914,2.0,123.6831089,23.09771634,-99999.0,'11111222,11111222,99999999' 
TABS,ioos:station:TABS:M:1,1999-05-02T22:30:00Z,28.1921,-94.1914,2.0,130.084623,27.06859804,-99999.0,'11111222,11111222,99999999' 
TABS,ioos:station:TABS:M:1,1999-05-02T23:00:00Z,28.1921,-94.1914,2.0,141.8779408,24.62187848,-99999.0,'11111222,11111222,99999999' 
TABS,ioos:station:TABS:M:1,1999-05-02T23:30:00Z,28.1921,-94.1914,2.0,157.1119662,39.46735486,-99999.0,'11111222,11111222,99999999' 
TABS,ioos:station:TABS:M:1,1999-05-03T00:00:00Z,28.1921,-94.1914,2.0,100.0674108,16.18927114,-99999.0,'11111222,11111222,99999999' 
TABS,ioos:station:TABS:M:1,1999-05-03T00:30:00Z,28.1921,-94.1914,2.0,155.9702781,16.47806421,-99999.0,'11111222,11111222,99999999' 
TABS,ioos:station:TABS:M:1,1999-05-03T01:00:00Z,28.1921,-94.1914,2.0,172.1811194,16.39239153,-99999.0,'11111222,11111222,99999999' 
TABS,ioos:station:TABS:M:1,1999-05-03T01:30:00Z,28.1921,-94.1914,2.0,179.4453329,15.50072579,-99999.0,'11111222,11111222,99999999' 
TABS,ioos:station:TABS:M:1,1999-05-03T02:00:00Z,28.1921,-94.1914,2.0,195.9399649,15.1838368,-99999.0,'11111222,11111222,99999999' 
TABS,ioos:station:TABS:M:1,1999-05-03T02:30:00Z,28.1921,-94.1914,2.0,204.4951715,14.7363564,-99999.0,'11111222,11111222,99999999' 
TABS,ioos:station:TABS:M:1,1999-05-03T03:00:00Z,28.1921,-94.1914,2.0,220.2695488,14.06275222,-99999.0,'11111222,11111222,99999999' 
TABS,ioos:station:TABS:M:1,1999-05-03T03:30:00Z,28.1921,-94.1914,2.0,230.5071889,14.2929703,-99999.0,'11111222,11111222,99999999' 
TABS,ioos:station:TABS:M:1,1999-05-03T04:00:00Z,28.1921,-94.1914,2.0,246.1230195,12.87155779,-99999.0,'11111222,11111222,99999999' 
TABS,ioos:station:TABS:M:1,1999-05-03T04:30:00Z,28.1921,-94.1914,2.0,256.9488176,14.52518158,-99999.0,'11111222,11111222,99999999' 
TABS,ioos:station:TABS:M:1,1999-05-03T05:00:00Z,28.1921,-94.1914,2.0,262.035628,16.09523221,-99999.0,'11111222,11111222,99999999' 
TABS,ioos:station:TABS:M:1,1999-05-03T05:30:00Z,28.1921,-94.1914,2.0,276.2331446,16.48745584,-99999.0,'11111222,11111222,99999999' 
TABS,ioos:station:TABS:M:1,1999-05-03T06:00:00Z,28.1921,-94.1914,2.0,285.2809235,19.7688897,-99999.0,'11111222,11111222,99999999' 
TABS,ioos:station:TABS:M:1,1999-05-03T06:30:00Z,28.1921,-94.1914,2.0,297.608739,21.8589524,-99999.0,'11111222,11111222,99999999' 
TABS,ioos:station:TABS:M:1,1999-05-03T07:00:00Z,28.1921,-94.1914,2.0,309.2788058,22.12955038,-99999.0,'11111222,11111222,99999999' 
TABS,ioos:station:TABS:M:1,1999-05-03T07:30:00Z,28.1921,-94.1914,2.0,317.2298322,19.08511724,-99999.0,'11111222,11111222,99999999' 
TABS,ioos:station:TABS:M:1,1999-05-03T08:00:00Z,28.1921,-94.1914,2.0,320.5623051,17.3634386,-99999.0,'11111222,11111222,99999999' 
TABS,ioos:station:TABS:M:1,1999-05-03T08:30:00Z,28.1921,-94.1914,2.0,327.3701331,17.69241645,-99999.0,'11111222,11111222,99999999' 
TABS,ioos:station:TABS:M:1,1999-05-03T09:00:00Z,28.1921,-94.1914,2.0,337.6821548,12.56094344,-99999.0,'11111222,11111222,99999999' 
TABS,ioos:station:TABS:M:1,1999-05-03T09:30:00Z,28.1921,-94.1914,2.0,346.7786382,10.4058301,-99999.0,'11111222,11111222,99999999' 
TABS,ioos:station:TABS:M:1,1999-05-03T10:00:00Z,28.1921,-94.1914,2.0,344.8195252,10.80711802,-99999.0,'11111222,11111222,99999999' 
TABS,ioos:station:TABS:M:1,1999-05-03T10:30:00Z,28.1921,-94.1914,2.0,356.3088331,11.49384618,-99999.0,'11111222,11111222,99999999' 
TABS,ioos:station:TABS:M:1,1999-05-03T11:00:00Z,28.1921,-94.1914,2.0,0.790082,10.88103396,-99999.0,'11111222,11111222,99999999' 
TABS,ioos:station:TABS:M:1,1999-05-03T11:30:00Z,28.1921,-94.1914,2.0,30.61637168,8.482476054,-99999.0,'11133222,11111222,99999999' 
TABS,ioos:station:TABS:M:1,1999-05-03T12:00:00Z,28.1921,-94.1914,2.0,49.56674016,6.66087832,-99999.0,'11133222,11111222,99999999' 
TABS,ioos:station:TABS:M:1,1999-05-03T12:30:00Z,28.1921,-94.1914,2.0,51.5892117,6.470340022,-99999.0,'11133222,11111222,99999999' 
TABS,ioos:station:TABS:M:1,1999-05-03T13:00:00Z,28.1921,-94.1914,2.0,70.0075904,5.235503796,-99999.0,'11133222,11111222,99999999' 
TABS,ioos:station:TABS:M:1,1999-05-03T13:30:00Z,28.1921,-94.1914,2.0,80.30602361,5.285470651,-99999.0,'11133222,11111222,99999999' 
TABS,ioos:station:TABS:M:1,1999-05-03T14:00:00Z,28.1921,-94.1914,2.0,104.9074459,4.625689138,-99999.0,'11133222,11111222,99999999' 
TABS,ioos:station:TABS:M:1,1999-05-03T14:30:00Z,28.1921,-94.1914,2.0,92.21965036,3.872905886,-99999.0,'11133222,11111222,99999999' 
TABS,ioos:station:TABS:M:1,1999-05-03T15:00:00Z,28.1921,-94.1914,2.0,86.39369981,2.384722206,-99999.0,'11133222,11111222,99999999' 
TABS,ioos:station:TABS:M:1,1999-05-03T15:30:00Z,28.1921,-94.1914,2.0,23.39791966,1.133181362,-99999.0,'11133222,11111222,99999999' 
TABS,ioos:station:TABS:M:1,1999-05-03T16:00:00Z,28.1921,-94.1914,2.0,130.555799,1.368831619,-99999.0,'11133222,11111222,99999999' 
TABS,ioos:station:TABS:M:1,1999-05-03T16:30:00Z,28.1921,-94.1914,2.0,270.0004209,0.74,-99999.0,'11133222,11111222,99999999' 
TABS,ioos:station:TABS:M:1,1999-05-03T17:00:00Z,28.1921,-94.1914,2.0,14.0364211,0.618465844,-99999.0,'11133222,11111222,99999999' 
TABS,ioos:station:TABS:M:1,1999-05-03T17:30:00Z,28.1921,-94.1914,2.0,32.04877714,2.807935184,-99999.0,'11133222,11111222,99999999' 
TABS,ioos:station:TABS:M:1,1999-05-03T18:00:00Z,28.1921,-94.1914,2.0,69.0610493,5.428489661,-99999.0,'11133222,11111222,99999999' 
TABS,ioos:station:TABS:M:1,1999-05-03T18:30:00Z,28.1921,-94.1914,2.0,90.0,6.56,-99999.0,'11133222,11111222,99999999' 
TABS,ioos:station:TABS:M:1,1999-05-03T19:00:00Z,28.1921,-94.1914,2.0,103.9456963,3.070504844,-99999.0,'11133222,11111222,99999999' 
TABS,ioos:station:TABS:M:1,1999-05-03T19:30:00Z,28.1921,-94.1914,2.0,106.8486625,5.140671162,-99999.0,'11133222,11111222,99999999' 
TABS,ioos:station:TABS:M:1,1999-05-03T20:00:00Z,28.1921,-94.1914,2.0,140.7062442,19.05905034,-99999.0,'11111222,11111222,99999999' 
TABS,ioos:station:TABS:M:1,1999-05-03T20:30:00Z,28.1921,-94.1914,2.0,102.8319271,17.42518293,-99999.0,'11111222,11111222,99999999' 
TABS,ioos:station:TABS:M:1,1999-05-03T21:00:00Z,28.1921,-94.1914,2.0,40.73008159,16.90434855,-99999.0,'11111222,11111222,99999999' 
TABS,ioos:station:TABS:M:1,1999-05-03T21:30:00Z,28.1921,-94.1914,2.0,115.5531443,26.59099472,-99999.0,'11111222,11111222,99999999' 
TABS,ioos:station:TABS:M:1,1999-05-03T22:00:00Z,28.1921,-94.1914,2.0,46.85860388,9.593414408,-99999.0,'11133222,11111222,99999999' 
TABS,ioos:station:TABS:M:1,1999-05-03T22:30:00Z,28.1921,-94.1914,2.0,80.04595078,8.619756377,-99999.0,'11133222,11111222,99999999' 
TABS,ioos:station:TABS:M:1,1999-05-03T23:00:00Z,28.1921,-94.1914,2.0,118.9426812,12.93560977,-99999.0,'11111222,11111222,99999999' 
TABS,ioos:station:TABS:M:1,1999-05-03T23:30:00Z,28.1921,-94.1914,2.0,98.84794802,18.39894834,-99999.0,'11111222,11111222,99999999' 
TABS,ioos:station:TABS:M:1,1999-05-04T00:00:00Z,28.1921,-94.1914,2.0,119.6824467,15.95335701,-99999.0,'11111222,11111222,99999999' 
TABS,ioos:station:TABS:M:1,1999-05-04T00:30:00Z,28.1921,-94.1914,2.0,123.9985245,15.451398,-99999.0,'11111222,11111222,99999999' 
TABS,ioos:station:TABS:M:1,1999-05-04T01:00:00Z,28.1921,-94.1914,2.0,134.5966003,15.0688188,-99999.0,'11111222,11111222,99999999' 
TABS,ioos:station:TABS:M:1,1999-05-04T01:30:00Z,28.1921,-94.1914,2.0,140.5163194,16.40306374,-99999.0,'11111222,11111222,99999999' 
TABS,ioos:station:TABS:M:1,1999-05-04T02:00:00Z,28.1921,-94.1914,2.0,143.846634,14.39112574,-99999.0,'11111222,11111222,99999999' 
TABS,ioos:station:TABS:M:1,1999-05-04T02:30:00Z,28.1921,-94.1914,2.0,156.2913191,17.40929637,-99999.0,'11111222,11111222,99999999' 
TABS,ioos:station:TABS:M:1,1999-05-04T03:00:00Z,28.1921,-94.1914,2.0,163.145347,16.96891275,-99999.0,'11111222,11111222,99999999' 
TABS,ioos:station:TABS:M:1,1999-05-04T03:30:00Z,28.1921,-94.1914,2.0,173.9014341,15.43736053,-99999.0,'11111222,11111222,99999999' 
TABS,ioos:station:TABS:M:1,1999-05-04T04:00:00Z,28.1921,-94.1914,2.0,187.3067758,11.71513978,-99999.0,'11111222,11111222,99999999' 
TABS,ioos:station:TABS:M:1,1999-05-04T04:30:00Z,28.1921,-94.1914,2.0,197.1700207,10.60253743,-99999.0,'11111222,11111222,99999999' 
TABS,ioos:station:TABS:M:1,1999-05-04T05:00:00Z,28.1921,-94.1914,2.0,217.9491498,9.447676963,-99999.0,'11133222,11111222,99999999' 
TABS,ioos:station:TABS:M:1,1999-05-04T05:30:00Z,28.1921,-94.1914,2.0,231.5086255,7.422971103,-99999.0,'11133222,11111222,99999999' 
TABS,ioos:station:TABS:M:1,1999-05-04T06:00:00Z,28.1921,-94.1914,2.0,257.5848541,7.628374663,-99999.0,'11133222,11111222,99999999' 
TABS,ioos:station:TABS:M:1,1999-05-04T06:30:00Z,28.1921,-94.1914,2.0,264.0151791,8.53652154,-99999.0,'11133222,11111222,99999999' 
TABS,ioos:station:TABS:M:1,1999-05-04T07:00:00Z,28.1921,-94.1914,2.0,292.4477816,7.411572033,-99999.0,'11133222,11111222,99999999' 
TABS,ioos:station:TABS:M:1,1999-05-04T07:30:00Z,28.1921,-94.1914,2.0,312.6933233,7.904789687,-99999.0,'11133222,11111222,99999999' 
TABS,ioos:station:TABS:M:1,1999-05-04T08:00:00Z,28.1921,-94.1914,2.0,310.7881105,8.664248381,-99999.0,'11133222,11111222,99999999' 
TABS,ioos:station:TABS:M:1,1999-05-04T08:30:00Z,28.1921,-94.1914,2.0,310.1453154,9.942238179,-99999.0,'11133222,11111222,99999999' 
TABS,ioos:station:TABS:M:1,1999-05-04T09:00:00Z,28.1921,-94.1914,2.0,315.7696828,7.899094885,-99999.0,'11133222,11111222,99999999' 
TABS,ioos:station:TABS:M:1,1999-05-04T09:30:00Z,28.1921,-94.1914,2.0,308.365764,9.119106316,-99999.0,'11133222,11111222,99999999' 
TABS,ioos:station:TABS:M:1,1999-05-04T10:00:00Z,28.1921,-94.1914,2.0,296.56541,7.334302966,-99999.0,'11133222,11111222,99999999' 
TABS,ioos:station:TABS:M:1,1999-05-04T10:30:00Z,28.1921,-94.1914,2.0,293.724462,10.73737864,-99999.0,'11111222,11111222,99999999' 
TABS,ioos:station:TABS:M:1,1999-05-04T11:00:00Z,28.1921,-94.1914,2.0,321.0710371,9.962434441,-99999.0,'11133222,11111222,99999999' 
TABS,ioos:station:TABS:M:1,1999-05-04T11:30:00Z,28.1921,-94.1914,2.0,336.9387449,9.87952428,-99999.0,'11133222,11111222,99999999' 
TABS,ioos:station:TABS:M:1,1999-05-04T12:00:00Z,28.1921,-94.1914,2.0,349.5138555,8.18673317,-99999.0,'11133222,11111222,99999999' 
TABS,ioos:station:TABS:M:1,1999-05-04T12:30:00Z,28.1921,-94.1914,2.0,11.82806647,10.1964945,-99999.0,'11111222,11111222,99999999' 
TABS,ioos:station:TABS:M:1,1999-05-04T13:00:00Z,28.1921,-94.1914,2.0,23.77199226,12.20554382,-99999.0,'11111222,11111222,99999999' 
TABS,ioos:station:TABS:M:1,1999-05-04T13:30:00Z,28.1921,-94.1914,2.0,38.78764595,12.6110626,-99999.0,'11111222,11111222,99999999' 
TABS,ioos:station:TABS:M:1,1999-05-04T14:00:00Z,28.1921,-94.1914,2.0,51.25453004,13.56526815,-99999.0,'11111222,11111222,99999999' 
TABS,ioos:station:TABS:M:1,1999-05-04T14:30:00Z,28.1921,-94.1914,2.0,55.86860515,16.20049999,-99999.0,'11111222,11111222,99999999' 
TABS,ioos:station:TABS:M:1,1999-05-04T15:00:00Z,28.1921,-94.1914,2.0,62.95228741,15.3936383,-99999.0,'11111222,11111222,99999999' 
TABS,ioos:station:TABS:M:1,1999-05-04T15:30:00Z,28.1921,-94.1914,2.0,77.74429402,16.15824867,-99999.0,'11111222,11111222,99999999' 
TABS,ioos:station:TABS:M:1,1999-05-04T16:00:00Z,28.1921,-94.1914,2.0,67.2083084,19.231625,-99999.0,'11111222,11111222,99999999' 
TABS,ioos:station:TABS:M:1,1999-05-04T16:30:00Z,28.1921,-94.1914,2.0,65.84404294,18.9383447,-99999.0,'11111222,11111222,99999999' 
TABS,ioos:station:TABS:M:1,1999-05-04T17:00:00Z,28.1921,-94.1914,2.0,72.97502977,24.9326212,-99999.0,'11111222,11111222,99999999' 
TABS,ioos:station:TABS:M:1,1999-05-04T17:30:00Z,28.1921,-94.1914,2.0,98.75018255,21.56094849,-99999.0,'11111222,11111222,99999999' 
TABS,ioos:station:TABS:M:1,1999-05-04T18:00:00Z,28.1921,-94.1914,2.0,76.66198547,23.88425632,-99999.0,'11111222,11111222,99999999' 